Regional Weather Roundup
Issued by NWS Newport/Morehead, NC

Current Version | Previous Version | Text Only | Print | Product List | Glossary On
Versions: 1 2 3 4 5 6 7 8 9 10 11 12 13 14 15 16 17 18 19 20 21 22 23 24 25 26 27 28 29 30 31 32 33 34 35 36 37 38 39 40 41 42 43 44 45 46 47 48 49 50
000
ASUS42 KMHX 250013
RWRMHX
WEATHER ROUNDUP FOR EASTERN NORTH CAROLINA
NATIONAL WEATHER SERVICE NEWPORT/MOREHEAD CITY NC
800 PM EDT SUN JUL 24 2016

NOTE: "FAIR" INDICATES FEW OR NO CLOUDS BELOW 12,000 FEET
WITH NO SIGNIFICANT WEATHER AND/OR OBSTRUCTIONS TO VISIBILITY

NCZ015>017-031-032-045>047-102-103-250100-
NORTH COAST

CITY           SKY/WX    TMP DP  RH WIND       PRES   REMARKS
EDENTON        CLEAR     91  75  58 SW3       30.00R HX 102
ELIZABETH CITY CLEAR     88  75  65 S6        29.99R
KITTY HAWK     CLEAR     87  77  72 S7        29.99S
MANTEO           N/A     86  80  83 SW15      30.00S HX 101

$$

NCZ045>047-081-094-103-104-250100-
CENTRAL COAST

CITY           SKY/WX    TMP DP  RH WIND       PRES   REMARKS
FRISCO         CLEAR     84  78  82 SW8       30.02S

$$

NCZ095-097-098-100-101-250100-
SOUTHERN COAST

CITY           SKY/WX    TMP DP  RH WIND       PRES   REMARKS
BEAUFORT       CLEAR     84  77  79 SW14      30.02S
CEDAR ISLAND   NOT AVBL
JACKSONVILLE   CLEAR     84  74  71 S7        30.00F
PINEY ISLAND   NOT AVBL
WILMINGTON     CLEAR     85  74  69 S6        30.01S


$$

NCZ011>013-027>030-043-044-078>080-089-090>093-098-250100-
COASTAL PLAIN

CITY           SKY/WX    TMP DP  RH WIND       PRES   REMARKS
AHOSKIE        CLEAR     84  80  87 CALM      29.99S
CLINTON        CLEAR     87  80  78 S3        30.01R HX 102
ELIZABETHTOWN  CLEAR     87  78  73 S3        30.00S HX 100
GOLDSBORO      CLEAR     89  78  71 S7        29.99R HX 103
GREENVILLE     CLEAR     90  77  66 S3        30.01R HX 102
HAVELOCK       CLEAR     84  74  71 SW9       30.02S
KENANSVILLE    NOT AVBL
KINSTON        CLEAR     88  75  66 S8        30.01R
NEW BERN       CLEAR     84  75  74 S6        30.02R
RICHLANDS      CLEAR     85  76  74 S6        30.01S
ROCKY MOUNT    CLEAR     85  78  80 CALM      29.99S
WASHINGTON     CLEAR     87  78  75 S5        29.99S HX 100
WHITEVILLE     CLEAR     85  78  79 S3        30.01R

$$

AMZ130-135-150-152-154-156-158-170-250-252-270-ANZ085-086-088-633-658-670-250100-
MARINE OBSERVATIONS

STATION/POSITION TIME  TEMP    WIND        PRES    WAVE   SWELL
                       AIR SEA DIR/SP/G            HT/PER HT/PER
                 (UTC) (F)     (DEG/KT/KT) (MB)    (FT/S) (FT/S)
CHESAPEAKE LIGHT NOT AVBL
64 E VA BEACH    2350   83 82  200/ 14/ 16 1015.3    2/ 8   2/ 8
DUCK             2300   84 70                N/A
2 E DUCK         2311      79                N/A     1/ 9
OREGON INLET     2300   86 86                N/A
13E OREGON INLT  2330      83                N/A     2/ 3   2/ 8
HATTERAS CG      2300   84 84                N/A
DIAMOND BUOY     2350   85 85  230/ 12/ 16 1016.8    2/ 8   2/ 8
CAPE LOOKOUT     0000   84     210/  9/ 12 1016.4
BEAUFORT LAB     2300   85 85                N/A
30 SE NEW RVR IN 2308   85 85  210/ 12/ 14 1016.9
30 SE NEW RVR IN 2325      85                N/A     3/ 9
27 SE WRIGHTSVLE 2308   85 85  220/ 10/ 14 1017.0
5 SE WRIGHTSVLE  2308   85 84  220/ 14/ 17 1017.4
225 S CAPE HAT   2350   84 85  180/  4/  6 1018.3    2/ 8   2/ 8
41 SE CHARLESTON 2350   85 86  180/  8/ 10 1016.7    2/ 8   2/ 8

$$




USA.gov is the U.S. government's official web portal to all federal, state and local government web resources and services.